Hourly Data Report for February 06, 2021

TORONTO CITY
ONTARIO
Current Station Operator: ECCC - MSC

43°40'00.000" N
79°24'00.000" W
112.50 m
6158355
71508
XTO

Download Data

Hourly Data (February 2021)
Hourly Data Report for February 6, 2021
TIME
LST
Temp Definition
°C
Dew Point Definition
°C
Rel Hum Definition
%
Precip. Amount Definition
mm

Wind Dir Definition
10's deg

Wind Spd Definition
km/h
Visibility Definition
km
Stn Press Definition
kPa
Hmdx Definition


Wind Chill Definition


Weather Definition


00:00 -6.0 -13.8 54 0.0       99.12     LegendNANA
01:00 -5.9 -13.6 55 0.0       99.10     LegendNANA
02:00 -6.4 -13.7 56 0.0       99.13     LegendNANA
03:00 -6.8 -13.9 57 0.0       99.20     LegendNANA
04:00 -7.3 -13.9 59 0.0       99.28     LegendNANA
05:00 -7.8 -13.8 62 0.0       99.39     LegendNANA
06:00 -8.0 -14.0 62 0.0       99.47     LegendNANA
07:00 -7.9 -14.1 61 0.0       99.55     LegendNANA
08:00 -8.1 -13.6 64 0.0       99.67     LegendNANA
09:00 -7.6 -13.5 63 0.0       99.76     LegendNANA
10:00 -7.1 -13.9 58 0.0       99.86     LegendNANA
11:00 -6.5 -14.0 55 0.0       99.95     LegendNANA
12:00 -5.9 -14.1 52 0.0       100.00     LegendNANA
13:00 -5.8 -15.2 48 0.0       100.06     LegendNANA
14:00 -5.1 -14.2 49 0.0       100.16     LegendNANA
15:00 -5.2 -14.6 48 0.0       100.21     LegendNANA
16:00 -5.3 -14.2 50 0.0       100.28     LegendNANA
17:00 -5.6 -14.5 49 0.0       100.31     LegendNANA
18:00 -6.0 -13.9 54 0.0       100.35     LegendNANA
19:00 -6.4 -13.5 57 0.0       100.40     LegendNANA
20:00 -6.5 -13.0 60 0.0       100.45     LegendNANA
21:00 -6.6 -12.3 64 0.0       100.40     LegendNANA
22:00 -6.7 -12.0 66 0.0       100.33     LegendNANA
23:00 -6.2 -11.2 67 0.0       100.26     LegendNANA

Notes on Data Quality.

Legend

  • E = Estimated
  • M = Missing
  • NA = Not Available*
  • [empty] = Indicates an unobserved value
Date modified: